Regional Weather Roundup
Issued by NWS Mt. Holly, NJ

Home | Current Version | Previous Version | Text Only | Print | Product List | Glossary On
Versions: 1 2 3 4 5 6 7 8 9 10 11 12 13 14 15 16 17 18 19 20 21 22 23 24 25 26 27 28 29 30 31 32 33 34 35 36 37 38 39 40 41 42 43 44 45 46 47 48 49 50
000
ASUS41 KPHI 161510
RWRPHI

REGIONAL WEATHER ROUNDUP
NATIONAL WEATHER SERVICE MOUNT HOLLY NJ
1100 AM EDT TUE SEP 16 2014

NOTE:  "FAIR" INDICATES FEW OR NO CLOUDS BELOW 12,000 FEET WITH NO
SIGNIFICANT WEATHER AND/OR OBSTRUCTIONS TO VISIBILITY.

 * = STATION DOES NOT REPORT PRECIPITATION (E.G. RAIN, SNOW, ETC.)
        OR FOG.

NJZ015>026-161600-
SOUTHERN NEW JERSEY

CITY           SKY/WX    TMP DP  RH WIND       PRES   REMARKS
POMONA         PTSUNNY   69  65  86 NW13      29.99S
RIO GRANDE*    MOSUNNY   70  63  78 NW9       30.00S
MILLVILLE      PTSUNNY   70  60  70 NW10      30.00S
WRIGHTSTOWN    CLOUDY    62  61  94 VRB6      29.98F
MOUNT HOLLY    PTSUNNY   64  59  83 N12       30.00S
TRENTON        CLOUDY    63  57  81 N8        30.01S

$$
NJZ001>014-161600-
NORTHERN NEW JERSEY

CITY           SKY/WX    TMP DP  RH WIND       PRES   REMARKS
SUSSEX         PTSUNNY   65  56  72 CALM      30.02F
ANDOVER*         N/A     62  56  80 VRB6      30.03S
MORRISTOWN     PTSUNNY   63  61  94 N6        30.02F
NEWARK         LGT RAIN  59  57  93 NE8       30.02F
TETERBORO      LGT RAIN  60  56  86 CALM      30.00F FOG
CALDWELL       PTSUNNY   59  55  87 E6        30.02F
SOMERVILLE     CLOUDY    62  57  83 CALM      30.00S
ALLAIRE*       CLOUDY    63  55  77 NW9       30.00S
TOMS RIVER*    CLOUDY    64  61  88 NW8       30.00S

$$
PAZ043-044-047-054-055-060>062-066>071-161600-
EASTERN PENNSYLVANIA

CITY           SKY/WX    TMP DP  RH WIND       PRES   REMARKS
PHILADELPHIA   MOSUNNY   69  58  67 NW14      30.01S
NORTH PHILA    MOSUNNY   68  56  65 N9        30.02F
BLUE BELL      PTSUNNY   66  59  77 CALM      30.01S
DOYLESTOWN     MOSUNNY   63  58  83 VRB5      30.01F
QUAKERTOWN*    SUNNY     64  55  72 MISG      30.03S
POTTSTOWN      SUNNY     67  57  70 N7        30.03S
LANCASTER      MOSUNNY   67  54  63 NW8       30.03S
COATESVILLE    MOSUNNY   66  57  72 N7        30.03S
READING        SUNNY     67  56  67 N7        30.02S
ALLENTOWN      PTSUNNY   66  55  68 NE5       30.02S
MOUNT POCONO   PTSUNNY   59  49  69 NW13      30.04S
HAZLETON       PTSUNNY   61  52  72 NW8       30.07F
WILKES BARRE   PTSUNNY   60  51  72 VRB3      30.04F

$$
DEZALL-MDZ008-012-015-019-020-161600-
DELAWARE AND EASTERN MARYLAND

CITY           SKY/WX    TMP DP  RH WIND       PRES   REMARKS
WILMINGTON     SUNNY     71  59  65 N10       30.02S
DOVER          SUNNY     73  60  65 NW12      29.99S
GEORGETOWN     SUNNY     75  59  57 NW9       30.00S
EASTON         SUNNY     73  59  60 N12       30.05S
PATUXENT       MOSUNNY   76  56  49 NW14      30.02S
OCEAN CITY     SUNNY     77  61  57 NW8       29.98F
WALLOPS ISLAND MOSUNNY   76  63  64 NW10      30.00F
CAMBRIDGE      SUNNY     73  57  56 NW12G20   30.00S
SALISBURY        N/A    N/A N/A N/A MISG      30.00S

$$
PAZ001-021-NYZ056-072-MDZ011-DCZ001-161600-
OTHER NEARBY LOCATIONS

CITY           SKY/WX    TMP DP  RH WIND       PRES   REMARKS
HARRISBURG     MOSUNNY   68  55  63 NW8       30.04R
STATE COLLEGE  CLOUDY    57  54  88 NW6       30.09R
WILLIAMSPORT   PTSUNNY   64  51  62 NW7       30.04S
BINGHAMTON     CLOUDY    56  52  86 NW8       30.05F
NEW YORK CITY  RAIN      59  56  89 CALM      30.05S FOG
BALTIMORE      MOSUNNY   72  54  53 NW6       30.02S
WASHINGTON DC  MOSUNNY   77  55  46 NW15G21   30.04S

$$


USA.gov is the U.S. government's official web portal to all federal, state and local government web resources and services.